Location: McFarlands Corners
(41.4117°N, 81.3382°W)
Time: 16:43:24
(UTC+00:00)

SR - Pass Details

Date: 25 February 2026
Orbit: 572 x 849 km, 66.7° (Epoch: 12 March)

Event Time Altitude Azimuth Distance (km) Brightness Sun altitude
Rises 09:49:50 0° 268° (W) 2,805 - -26.2°
Reaches altitude 10° 09:53:43 10° 304° (NW) 1,952 - -25.5°
Maximum altitude 09:55:02 11° 322° (NW) 1,896 - -25.2°
Drops below altitude 10° 09:56:22 10° 339° (NNW) 1,991 - -25.0°
Exits shadow 09:57:05 - 348° (NNW) 2,102 ? -24.9°
Sets 10:00:30 0° 15° (NNE) 2,975 ? -24.2°
